Find DirecTV 12

NORAD ID: 36131 Int'l Des: 2009-075 Owner: DTV Country: US operational
HEOCIRCULARGSOGEO

Live Position

Loading 3D Globe...

About DirecTV 12

Description loading...

Upcoming Passes

Passes for default location (London). Set your location on the main map for personalized predictions.

Altitude History

Loading altitude history...

Two-Line Element Set

1 36131U 09075A 26111.49489388 -.00000109 00000-0 00000+0 0 9999
2 36131 0.0048 38.8855 0000251 313.7082 292.4069 1.00271406 45986
Epoch: Apr 21, 2026 • Age: 14 hours

Current Status

Altitude 35787.0 km
Velocity 3.07 km/s
Sub-Earth Point 0.01°N, 102.73°W
Launch Date Dec 29, 2009
Age 16.3 years
Type other

Technical Details

Classification Payload
Mass 5900.00 kg
Dry Mass 3000.00 kg
Total Mass 5900.00 kg
Length 8.00 m
Diameter 3.30 m
Span 48.10 m
Shape Box + 2 Pan
Manufacturer BOES
Bus Type BSS-702HP
Phase Status Renamed
Owner/State DTV/US

Most Searched